| time (UTC) | temp F | wind direction | speed knots | gust knots | rain 1hr in | rain 24hr in | rain mn in | humidity % | barometer mb |
| 20260507013522 | 49 | 307 | 0.9 | 3.5 | 0.00 | 0.09 | 0.00 | 92 | 1011.1 |
| 20260507013024 | 49 | 343 | 0.0 | 3.5 | 0.00 | 0.09 | 0.00 | 92 | 1011.1 |
| 20260507012520 | 49 | 286 | 0.9 | 2.6 | 0.00 | 0.09 | 0.00 | 92 | 1011.0 |
| 20260507012021 | 49 | 294 | 0.0 | 2.6 | 0.00 | 0.09 | 0.00 | 92 | 1011.0 |
| 20260507011534 | 49 | 273 | 0.9 | 2.6 | 0.00 | 0.09 | 0.00 | 92 | 1011.0 |
| 20260507011019 | 49 | 294 | 0.9 | 4.3 | 0.00 | 0.09 | 0.00 | 92 | 1011.0 |
| 20260507010519 | 50 | 299 | 1.7 | 4.3 | 0.00 | 0.09 | 0.00 | 92 | 1010.9 |
| 20260507010019 | 50 | 286 | 0.9 | 2.6 | 0.00 | 0.09 | 0.00 | 92 | 1010.9 |
| 20260507005519 | 50 | 274 | 0.0 | 2.6 | 0.00 | 0.09 | 0.00 | 92 | 1010.9 |
| 20260507005018 | 50 | 259 | 0.0 | 2.6 | 0.00 | 0.09 | 0.00 | 92 | 1011.0 |
| 20260507004517 | 50 | 264 | 0.0 | 2.6 | 0.00 | 0.09 | 0.00 | 92 | 1010.9 |
| 20260507004017 | 50 | 254 | 0.9 | 2.6 | 0.00 | 0.09 | 0.00 | 92 | 1010.9 |
| 20260507003517 | 50 | 285 | 0.9 | 2.6 | 0.00 | 0.09 | 0.00 | 92 | 1010.8 |
| 20260507003015 | 50 | 282 | 0.0 | 2.6 | 0.00 | 0.09 | 0.00 | 92 | 1010.9 |
| 20260507002515 | 50 | 273 | 0.0 | 3.5 | 0.00 | 0.09 | 0.00 | 92 | 1010.8 |
| 20260507002015 | 50 | 290 | 0.9 | 3.5 | 0.00 | 0.09 | 0.00 | 92 | 1010.7 |
| 20260507001543 | 50 | 263 | 0.0 | 2.6 | 0.00 | 0.09 | 0.00 | 92 | 1010.6 |
| 20260507001016 | 50 | 306 | 0.9 | 2.6 | 0.00 | 0.09 | 0.00 | 92 | 1010.7 |
| 20260507000514 | 50 | 303 | 0.0 | 2.6 | 0.00 | 0.09 | 0.00 | 92 | 1010.7 |
| 20260507000016 | 50 | 299 | 0.9 | 3.5 | 0.00 | 0.09 | 0.00 | 92 | 1010.7 |
| 20260506235514 | 50 | 260 | 0.9 | 3.5 | 0.00 | 0.10 | 0.00 | 92 | 1010.7 |
| 20260506235014 | 50 | 290 | 0.9 | 3.5 | 0.00 | 0.10 | 0.00 | 92 | 1010.6 |
| 20260506234513 | 50 | 290 | 1.7 | 3.5 | 0.00 | 0.10 | 0.00 | 92 | 1010.7 |
| 20260506234013 | 50 | 285 | 0.9 | 3.5 | 0.00 | 0.10 | 0.00 | 92 | 1010.7 |
| 20260506233513 | 50 | 317 | 0.9 | 3.5 | 0.00 | 0.10 | 0.00 | 92 | 1010.6 |
| 20260506233012 | 50 | 275 | 0.9 | 4.3 | 0.00 | 0.10 | 0.00 | 92 | 1010.6 |
| 20260506232511 | 50 | 273 | 1.7 | 4.3 | 0.00 | 0.10 | 0.00 | 92 | 1010.6 |
| 20260506232011 | 50 | 303 | 0.9 | 2.6 | 0.00 | 0.10 | 0.00 | 92 | 1010.6 |
| 20260506231511 | 50 | 273 | 0.9 | 4.3 | 0.00 | 0.10 | 0.00 | 92 | 1010.6 |
| 20260506231009 | 50 | 248 | 0.9 | 4.3 | 0.00 | 0.10 | 0.00 | 92 | 1010.5 |
| 20260506230515 | 50 | 279 | 0.9 | 3.5 | 0.00 | 0.10 | 0.00 | 92 | 1010.5 |
| 20260506230009 | 50 | 277 | 0.9 | 3.5 | 0.00 | 0.10 | 0.00 | 92 | 1010.5 |
| 20260506225509 | 50 | 270 | 0.9 | 2.6 | 0.00 | 0.20 | 0.00 | 92 | 1010.4 |
| 20260506225008 | 50 | 281 | 0.9 | 3.5 | 0.00 | 0.20 | 0.00 | 92 | 1010.4 |
| 20260506224508 | 50 | 279 | 0.9 | 3.5 | 0.00 | 0.20 | 0.00 | 92 | 1010.3 |
| 20260506224007 | 50 | 290 | 0.9 | 3.5 | 0.00 | 0.20 | 0.00 | 92 | 1010.3 |
| 20260506223507 | 50 | 277 | 0.9 | 4.3 | 0.00 | 0.20 | 0.00 | 92 | 1010.3 |
| 20260506223006 | 50 | 296 | 1.7 | 4.3 | 0.00 | 0.20 | 0.00 | 92 | 1010.3 |
| 20260506222510 | 50 | 299 | 0.0 | 3.5 | 0.00 | 0.20 | 0.00 | 92 | 1010.2 |
| 20260506222005 | 50 | 348 | 0.9 | 5.2 | 0.00 | 0.20 | 0.00 | 92 | 1010.2 |
| 20260506221506 | 50 | 296 | 0.9 | 5.2 | 0.00 | 0.20 | 0.00 | 92 | 1010.1 |
| 20260506221005 | 50 | 303 | 0.9 | 5.2 | 0.00 | 0.20 | 0.00 | 92 | 1010.1 |
| 20260506220505 | 50 | 308 | 1.7 | 5.2 | 0.00 | 0.20 | 0.00 | 92 | 1010.1 |
| 20260506220004 | 50 | 313 | 0.0 | 4.3 | 0.00 | 0.20 | 0.20 | 92 | 1010.1 |
| 20260506215504 | 50 | 298 | 0.9 | 3.5 | 0.00 | 0.20 | 0.20 | 92 | 1010.1 |
| 20260506215006 | 50 | 294 | 0.0 | 4.3 | 0.00 | 0.20 | 0.20 | 92 | 1010.0 |
| 20260506214503 | 50 | 291 | 0.0 | 4.3 | 0.00 | 0.20 | 0.20 | 92 | 1010.0 |
| 20260506214003 | 51 | 309 | 0.9 | 3.5 | 0.00 | 0.20 | 0.20 | 92 | 1010.0 |
| 20260506213503 | 51 | 302 | 0.9 | 2.6 | 0.00 | 0.20 | 0.20 | 92 | 1009.9 |
| 20260506213106 | 51 | 339 | 0.0 | 2.6 | 0.00 | 0.20 | 0.20 | 92 | 1010.0 |
| 20260506212602 | 51 | 267 | 0.9 | 2.6 | 0.00 | 0.20 | 0.20 | 92 | 1009.9 |
| 20260506212102 | 51 | 5 | 0.0 | 2.6 | 0.00 | 0.20 | 0.20 | 92 | 1009.8 |
| 20260506211559 | 51 | 320 | 0.0 | 3.5 | 0.00 | 0.20 | 0.20 | 92 | 1009.8 |
| 20260506211059 | 51 | 286 | 0.9 | 3.5 | 0.00 | 0.20 | 0.20 | 92 | 1009.7 |
| 20260506210559 | 51 | 294 | 0.9 | 2.6 | 0.00 | 0.20 | 0.20 | 92 | 1009.7 |
| 20260506205601 | 51 | 277 | 0.0 | 3.5 | 0.00 | 0.20 | 0.20 | 92 | 1009.6 |
| 20260506205056 | 51 | 323 | 0.0 | 3.5 | 0.00 | 0.20 | 0.20 | 92 | 1009.6 |
| 20260506204558 | 51 | 280 | 0.9 | 3.5 | 0.00 | 0.20 | 0.20 | 92 | 1009.5 |
| 20260506204056 | 51 | 289 | 0.9 | 4.3 | 0.00 | 0.20 | 0.20 | 92 | 1009.5 |
| 20260506203554 | 51 | 293 | 0.9 | 5.2 | 0.00 | 0.20 | 0.20 | 92 | 1009.4 |
| 20260506203112 | 51 | 284 | 0.9 | 6.1 | 0.00 | 0.20 | 0.20 | 92 | 1009.4 |
| 20260506202553 | 52 | 294 | 0.9 | 4.3 | 0.00 | 0.20 | 0.20 | 92 | 1009.4 |
| 20260506202053 | 52 | 285 | 1.7 | 4.3 | 0.00 | 0.20 | 0.20 | 92 | 1009.4 |
| 20260506201552 | 52 | 303 | 0.9 | 3.5 | 0.00 | 0.20 | 0.20 | 92 | 1009.3 |
| 20260506201054 | 52 | 302 | 0.9 | 6.1 | 0.00 | 0.20 | 0.20 | 92 | 1009.2 |
| 20260506200557 | 52 | 286 | 0.9 | 6.1 | 0.00 | 0.20 | 0.20 | 92 | 1009.2 |
| 20260506200056 | 52 | 294 | 0.9 | 6.1 | 0.00 | 0.20 | 0.20 | 92 | 1009.2 |
| 20260506195550 | 52 | 310 | 0.9 | 5.2 | 0.00 | 0.20 | 0.20 | 92 | 1009.1 |
| 20260506195050 | 52 | 275 | 0.9 | 3.5 | 0.00 | 0.20 | 0.20 | 92 | 1009.1 |
| 20260506194550 | 52 | 277 | 0.0 | 4.3 | 0.00 | 0.20 | 0.20 | 92 | 1009.1 |
| 20260506194048 | 52 | 281 | 1.7 | 4.3 | 0.00 | 0.20 | 0.20 | 92 | 1009.0 |
| 20260506193547 | 52 | 265 | 0.9 | 3.5 | 0.00 | 0.20 | 0.20 | 92 | 1009.0 |
| 20260506193050 | 53 | 295 | 0.9 | 3.5 | 0.00 | 0.20 | 0.20 | 92 | 1008.9 |
| 20260506192546 | 53 | 339 | 0.9 | 3.5 | 0.00 | 0.20 | 0.20 | 92 | 1008.8 |
| 20260506192045 | 53 | 294 | 0.9 | 3.5 | 0.00 | 0.20 | 0.20 | 92 | 1008.8 |
| 20260506191545 | 53 | 288 | 0.9 | 2.6 | 0.00 | 0.20 | 0.20 | 92 | 1008.7 |
| 20260506191044 | 53 | 294 | 0.0 | 3.5 | 0.00 | 0.20 | 0.20 | 92 | 1008.7 |
| 20260506190543 | 54 | 289 | 0.9 | 3.5 | 0.00 | 0.20 | 0.20 | 92 | 1008.6 |
| 20260506190045 | 54 | 287 | 0.0 | 0.0 | 0.00 | 0.20 | 0.20 | 92 | 1008.4 |
| 20260506185542 | 54 | 287 | 0.0 | 0.0 | 0.00 | 0.20 | 0.20 | 92 | 1008.4 |
| 20260506185041 | 54 | 254 | 0.0 | 0.0 | 0.00 | 0.20 | 0.20 | 92 | 1008.3 |
| 20260506184545 | 54 | 260 | 0.0 | 0.9 | 0.00 | 0.20 | 0.20 | 92 | 1008.3 |
| 20260506184040 | 54 | 272 | 0.0 | 2.6 | 0.00 | 0.20 | 0.20 | 91 | 1008.2 |
| 20260506183542 | 54 | 294 | 0.0 | 2.6 | 0.00 | 0.20 | 0.20 | 91 | 1008.2 |
| 20260506183038 | 54 | 329 | 0.0 | 3.5 | 0.00 | 0.20 | 0.20 | 91 | 1008.0 |
| 20260506182537 | 54 | 288 | 0.9 | 3.5 | 0.00 | 0.20 | 0.20 | 91 | 1008.0 |
| 20260506182037 | 54 | 290 | 0.9 | 2.6 | 0.00 | 0.20 | 0.20 | 91 | 1007.9 |
| 20260506181541 | 55 | 271 | 0.9 | 2.6 | 0.00 | 0.20 | 0.20 | 91 | 1007.9 |
| 20260506181036 | 55 | 286 | 0.0 | 2.6 | 0.00 | 0.20 | 0.20 | 91 | 1007.7 |
| 20260506180538 | 55 | 292 | 0.0 | 2.6 | 0.00 | 0.20 | 0.20 | 91 | 1007.7 |
| 20260506180036 | 55 | 285 | 0.0 | 3.5 | 0.01 | 0.20 | 0.20 | 91 | 1007.6 |
| 20260506175535 | 55 | 265 | 0.9 | 3.5 | 0.02 | 0.20 | 0.20 | 91 | 1007.6 |
| 20260506175035 | 56 | 289 | 0.0 | 3.5 | 0.03 | 0.20 | 0.20 | 91 | 1007.5 |
| 20260506174538 | 56 | 300 | 0.0 | 2.6 | 0.04 | 0.20 | 0.20 | 90 | 1007.5 |
| 20260506174035 | 56 | 333 | 0.0 | 3.5 | 0.06 | 0.20 | 0.20 | 90 | 1007.3 |
| 20260506173535 | 56 | 336 | 0.0 | 3.5 | 0.07 | 0.20 | 0.20 | 90 | 1007.2 |
| 20260506173036 | 56 | 323 | 0.9 | 2.6 | 0.07 | 0.20 | 0.20 | 90 | 1007.2 |
| 20260506172534 | 56 | 318 | 0.0 | 2.6 | 0.07 | 0.20 | 0.20 | 90 | 1007.2 |
| 20260506172034 | 57 | 316 | 0.0 | 3.5 | 0.07 | 0.20 | 0.20 | 89 | 1007.2 |
| 20260506171536 | 57 | 286 | 0.9 | 2.6 | 0.07 | 0.20 | 0.20 | 89 | 1007.2 |
| 20260506171035 | 57 | 317 | 0.9 | 2.6 | 0.07 | 0.20 | 0.20 | 89 | 1007.2 |
| 20260506170537 | 57 | 277 | 0.0 | 1.7 | 0.07 | 0.20 | 0.20 | 88 | 1007.1 |
| 20260506170038 | 57 | 328 | 0.0 | 1.7 | 0.06 | 0.20 | 0.19 | 88 | 1007.1 |
| 20260506165535 | 57 | 331 | 0.0 | 1.7 | 0.06 | 0.20 | 0.18 | 88 | 1007.1 |
| 20260506165034 | 58 | 319 | 0.0 | 1.7 | 0.04 | 0.18 | 0.17 | 87 | 1007.1 |
| 20260506164548 | 58 | 311 | 0.0 | 4.3 | 0.03 | 0.17 | 0.16 | 87 | 1007.1 |
| 20260506164033 | 58 | 323 | 0.9 | 4.3 | 0.01 | 0.15 | 0.13 | 87 | 1007.1 |
| 20260506163533 | 58 | 291 | 0.0 | 1.7 | 0.00 | 0.14 | 0.13 | 87 | 1007.0 |
| 20260506163037 | 58 | 344 | 0.0 | 1.7 | 0.00 | 0.14 | 0.13 | 86 | 1006.8 |
| 20260506162535 | 58 | 292 | 0.0 | 2.6 | 0.00 | 0.14 | 0.13 | 86 | 1006.7 |
| 20260506162034 | 58 | 340 | 0.0 | 3.5 | 0.00 | 0.14 | 0.13 | 86 | 1006.7 |
| 20260506161532 | 58 | 301 | 0.9 | 3.5 | 0.01 | 0.14 | 0.13 | 86 | 1006.8 |
| 20260506161032 | 59 | 305 | 0.0 | 2.6 | 0.02 | 0.14 | 0.13 | 86 | 1006.8 |
| 20260506160532 | 59 | 300 | 0.0 | 2.6 | 0.02 | 0.14 | 0.13 | 85 | 1006.7 |
| 20260506160035 | 59 | 313 | 0.0 | 2.6 | 0.02 | 0.14 | 0.13 | 85 | 1006.8 |
| 20260506155532 | 59 | 282 | 0.0 | 2.6 | 0.02 | 0.20 | 0.13 | 85 | 1006.8 |
| 20260506155033 | 59 | 304 | 0.0 | 2.6 | 0.02 | 0.20 | 0.13 | 84 | 1006.8 |
| 20260506154531 | 59 | 281 | 0.0 | 1.7 | 0.02 | 0.20 | 0.13 | 84 | 1006.8 |
| 20260506154031 | 59 | 308 | 0.0 | 3.5 | 0.02 | 0.20 | 0.13 | 84 | 1006.8 |
| 20260506153532 | 60 | 290 | 0.0 | 4.3 | 0.02 | 0.20 | 0.13 | 83 | 1006.7 |
| 20260506153030 | 60 | 340 | 0.0 | 4.3 | 0.02 | 0.20 | 0.13 | 82 | 1006.8 |
| 20260506152532 | 60 | 311 | 0.0 | 5.2 | 0.02 | 0.20 | 0.13 | 81 | 1006.8 |
| 20260506152030 | 61 | 307 | 1.7 | 6.1 | 0.02 | 0.20 | 0.13 | 79 | 1006.7 |
| 20260506151533 | 62 | 293 | 2.6 | 7.0 | 0.01 | 0.19 | 0.12 | 77 | 1006.6 |
| 20260506151032 | 62 | 298 | 2.6 | 7.0 | 0.00 | 0.18 | 0.11 | 73 | 1006.6 |
| 20260506150530 | 63 | 300 | 0.9 | 6.1 | 0.00 | 0.18 | 0.11 | 72 | 1006.5 |
| 20260506150030 | 63 | 255 | 2.6 | 6.1 | 0.00 | 0.18 | 0.11 | 70 | 1006.5 |
| 20260506145530 | 63 | 263 | 1.7 | 7.8 | 0.00 | 0.18 | 0.11 | 69 | 1006.4 |
| 20260506145030 | 63 | 259 | 2.6 | 7.0 | 0.00 | 0.18 | 0.11 | 69 | 1006.4 |
| 20260506144530 | 63 | 275 | 2.6 | 7.0 | 0.00 | 0.18 | 0.11 | 68 | 1006.3 |
| 20260506144029 | 63 | 111 | 0.9 | 7.0 | 0.00 | 0.18 | 0.11 | 68 | 1006.3 |
| 20260506143531 | 64 | 324 | 1.7 | 7.0 | 0.00 | 0.18 | 0.11 | 69 | 1006.2 |
| 20260506143036 | 64 | 237 | 1.7 | 6.1 | 0.00 | 0.18 | 0.11 | 68 | 1006.2 |
| 20260506142529 | 64 | 279 | 2.6 | 7.0 | 0.00 | 0.18 | 0.11 | 67 | 1006.3 |
| 20260506142027 | 64 | 206 | 1.7 | 7.0 | 0.00 | 0.18 | 0.11 | 67 | 1006.2 |
| 20260506141531 | 65 | 248 | 0.9 | 7.0 | 0.00 | 0.18 | 0.11 | 67 | 1006.2 |
| 20260506141028 | 65 | 296 | 1.7 | 7.0 | 0.00 | 0.18 | 0.11 | 67 | 1006.2 |
| 20260506140530 | 65 | 333 | 2.6 | 7.0 | 0.00 | 0.18 | 0.11 | 67 | 1006.1 |
| 20260506140027 | 65 | 217 | 2.6 | 6.1 | 0.00 | 0.18 | 0.11 | 68 | 1006.2 |
| 20260506135526 | 64 | 193 | 1.7 | 6.1 | 0.00 | 0.18 | 0.11 | 67 | 1006.2 |
| 20260506135028 | 64 | 232 | 0.9 | 7.0 | 0.00 | 0.18 | 0.11 | 67 | 1006.2 |
| 20260506134526 | 64 | 252 | 1.7 | 6.1 | 0.00 | 0.18 | 0.11 | 67 | 1006.2 |
| 20260506134026 | 64 | 217 | 1.7 | 6.1 | 0.00 | 0.18 | 0.11 | 67 | 1006.2 |
| 20260506133526 | 64 | 216 | 2.6 | 7.0 | 0.00 | 0.18 | 0.11 | 68 | 1006.3 |
| 20260506133027 | 64 | 202 | 0.9 | 7.0 | 0.00 | 0.18 | 0.11 | 68 | 1006.2 |
| 20260506132528 | 64 | 250 | 2.6 | 7.0 | 0.00 | 0.18 | 0.11 | 66 | 1006.2 |
| 20260506132025 | 64 | 325 | 0.9 | 6.1 | 0.00 | 0.18 | 0.11 | 66 | 1006.2 |
| 20260506131525 | 64 | 238 | 2.6 | 5.2 | 0.00 | 0.18 | 0.11 | 66 | 1006.2 |
| 20260506131025 | 64 | 208 | 1.7 | 7.0 | 0.00 | 0.18 | 0.11 | 66 | 1006.3 |
| 20260506130528 | 64 | 301 | 1.7 | 7.8 | 0.00 | 0.18 | 0.11 | 67 | 1006.2 |
| 20260506130027 | 64 | 245 | 1.7 | 7.0 | 0.00 | 0.18 | 0.11 | 67 | 1006.2 |
| 20260506125524 | 64 | 207 | 2.6 | 7.0 | 0.00 | 0.18 | 0.11 | 66 | 1006.2 |
| 20260506125026 | 64 | 204 | 1.7 | 5.2 | 0.00 | 0.18 | 0.11 | 68 | 1006.2 |
| 20260506124524 | 64 | 223 | 1.7 | 5.2 | 0.00 | 0.18 | 0.11 | 68 | 1006.2 |
| 20260506124024 | 64 | 246 | 2.6 | 7.0 | 0.00 | 0.18 | 0.11 | 68 | 1006.2 |
| 20260506123523 | 63 | 216 | 0.9 | 7.8 | 0.00 | 0.18 | 0.11 | 68 | 1006.3 |
| 20260506123023 | 63 | 231 | 1.7 | 6.1 | 0.00 | 0.18 | 0.11 | 68 | 1006.3 |
| 20260506122523 | 63 | 224 | 2.6 | 6.1 | 0.00 | 0.18 | 0.11 | 68 | 1006.4 |
| 20260506122022 | 63 | 227 | 1.7 | 6.1 | 0.00 | 0.18 | 0.11 | 68 | 1006.4 |
| 20260506121523 | 63 | 195 | 1.7 | 7.8 | 0.00 | 0.18 | 0.11 | 68 | 1006.4 |
| 20260506121022 | 63 | 213 | 4.3 | 7.8 | 0.00 | 0.18 | 0.11 | 68 | 1006.5 |
| 20260506120522 | 63 | 203 | 2.6 | 7.8 | 0.00 | 0.18 | 0.11 | 67 | 1006.5 |
| 20260506120046 | 63 | 264 | 3.5 | 7.0 | 0.00 | 0.18 | 0.11 | 67 | 1006.4 |
| 20260506115525 | 63 | 191 | 3.5 | 8.7 | 0.00 | 0.18 | 0.11 | 67 | 1006.4 |
| 20260506115021 | 64 | 211 | 2.6 | 8.7 | 0.00 | 0.18 | 0.11 | 67 | 1006.4 |
| 20260506114521 | 64 | 228 | 4.3 | 8.7 | 0.00 | 0.18 | 0.11 | 67 | 1006.4 |
| 20260506114021 | 63 | 259 | 2.6 | 7.8 | 0.00 | 0.18 | 0.11 | 68 | 1006.4 |
| 20260506113521 | 63 | 244 | 4.3 | 9.6 | 0.00 | 0.18 | 0.11 | 67 | 1006.5 |
| 20260506113021 | 63 | 196 | 4.3 | 9.6 | 0.00 | 0.18 | 0.11 | 67 | 1006.4 |
| 20260506112521 | 63 | 300 | 2.6 | 7.8 | 0.00 | 0.18 | 0.11 | 67 | 1006.4 |
| 20260506112020 | 63 | 150 | 3.5 | 7.8 | 0.00 | 0.18 | 0.11 | 68 | 1006.5 |
| 20260506111520 | 63 | 217 | 3.5 | 7.0 | 0.00 | 0.18 | 0.11 | 69 | 1006.5 |
| 20260506111020 | 63 | 200 | 3.5 | 6.1 | 0.00 | 0.18 | 0.11 | 68 | 1006.5 |
| 20260506110520 | 63 | 207 | 2.6 | 6.1 | 0.00 | 0.18 | 0.11 | 70 | 1006.5 |
| 20260506110020 | 63 | 264 | 2.6 | 7.8 | 0.00 | 0.18 | 0.11 | 69 | 1006.5 |
| 20260506105524 | 64 | 196 | 1.7 | 9.6 | 0.00 | 0.18 | 0.11 | 69 | 1006.6 |
| 20260506105020 | 64 | 165 | 3.5 | 10.4 | 0.00 | 0.18 | 0.11 | 68 | 1006.6 |
| 20260506104531 | 64 | 234 | 5.2 | 10.4 | 0.00 | 0.18 | 0.11 | 67 | 1006.5 |
| 20260506104024 | 64 | 202 | 2.6 | 9.6 | 0.00 | 0.18 | 0.11 | 67 | 1006.6 |
| 20260506103519 | 65 | 250 | 3.5 | 8.7 | 0.00 | 0.18 | 0.11 | 67 | 1006.5 |
| 20260506103035 | 65 | 223 | 2.6 | 8.7 | 0.00 | 0.18 | 0.11 | 67 | 1006.5 |
| 20260506102520 | 65 | 254 | 2.6 | 6.1 | 0.00 | 0.18 | 0.11 | 68 | 1006.6 |
| 20260506102018 | 65 | 312 | 3.5 | 6.1 | 0.00 | 0.18 | 0.11 | 67 | 1006.6 |
| 20260506101519 | 65 | 243 | 2.6 | 9.6 | 0.00 | 0.18 | 0.11 | 67 | 1006.6 |
| 20260506101018 | 65 | 154 | 2.6 | 9.6 | 0.00 | 0.18 | 0.11 | 68 | 1006.6 |
| 20260506100520 | 65 | 177 | 2.6 | 8.7 | 0.00 | 0.18 | 0.11 | 68 | 1006.6 |
| 20260506100015 | 64 | 248 | 0.0 | 8.7 | 0.00 | 0.18 | 0.11 | 70 | 1006.5 |
| 20260506095513 | 64 | 183 | 4.3 | 10.4 | 0.00 | 0.18 | 0.11 | 71 | 1006.5 |
| 20260506095014 | 63 | 206 | 4.3 | 10.4 | 0.00 | 0.18 | 0.11 | 72 | 1006.5 |
| 20260506094513 | 62 | 209 | 3.5 | 7.0 | 0.00 | 0.18 | 0.11 | 73 | 1006.5 |
| 20260506094012 | 61 | 193 | 3.5 | 7.0 | 0.00 | 0.18 | 0.11 | 73 | 1006.4 |
| 20260506093511 | 61 | 247 | 1.7 | 6.1 | 0.00 | 0.18 | 0.11 | 74 | 1006.5 |
| 20260506093019 | 61 | 288 | 2.6 | 6.1 | 0.00 | 0.18 | 0.11 | 74 | 1006.5 |
| 20260506092511 | 62 | 296 | 1.7 | 8.7 | 0.00 | 0.18 | 0.11 | 73 | 1006.6 |
| 20260506092011 | 62 | 248 | 1.7 | 8.7 | 0.00 | 0.18 | 0.11 | 72 | 1006.5 |
| 20260506091516 | 62 | 221 | 2.6 | 9.6 | 0.00 | 0.18 | 0.11 | 72 | 1006.6 |
| 20260506091011 | 62 | 220 | 4.3 | 9.6 | 0.00 | 0.18 | 0.11 | 71 | 1006.5 |
| 20260506090509 | 63 | 182 | 3.5 | 7.8 | 0.00 | 0.18 | 0.11 | 73 | 1006.5 |
| 20260506090008 | 62 | 21 | 2.6 | 7.8 | 0.00 | 0.18 | 0.11 | 73 | 1006.6 |
| 20260506085507 | 62 | 229 | 3.5 | 7.8 | 0.00 | 0.18 | 0.11 | 74 | 1006.5 |
| 20260506085006 | 61 | 173 | 3.5 | 8.7 | 0.00 | 0.18 | 0.11 | 75 | 1006.5 |
| 20260506084506 | 61 | 202 | 6.1 | 9.6 | 0.00 | 0.18 | 0.11 | 74 | 1006.6 |
| 20260506084010 | 61 | 247 | 3.5 | 8.7 | 0.00 | 0.18 | 0.11 | 74 | 1006.5 |
| 20260506083506 | 61 | 246 | 4.3 | 9.6 | 0.00 | 0.18 | 0.11 | 74 | 1006.4 |
| 20260506083005 | 61 | 222 | 3.5 | 8.7 | 0.00 | 0.18 | 0.11 | 75 | 1006.4 |
| 20260506082505 | 61 | 215 | 3.5 | 8.7 | 0.00 | 0.18 | 0.11 | 76 | 1006.4 |
| 20260506082003 | 61 | 180 | 3.5 | 7.8 | 0.00 | 0.18 | 0.11 | 76 | 1006.4 |
| 20260506081503 | 61 | 219 | 2.6 | 7.8 | 0.00 | 0.18 | 0.11 | 77 | 1006.4 |
| 20260506081005 | 61 | 233 | 2.6 | 7.8 | 0.00 | 0.18 | 0.11 | 78 | 1006.4 |
| 20260506080503 | 61 | 154 | 3.5 | 7.8 | 0.00 | 0.18 | 0.11 | 78 | 1006.4 |
| 20260506073058 | 61 | 178 | 2.6 | 8.7 | 0.00 | 0.18 | 0.11 | 81 | 1006.5 |
| 20260506072557 | 60 | 200 | 4.3 | 8.7 | 0.00 | 0.18 | 0.11 | 82 | 1006.4 |
| 20260506072056 | 60 | 209 | 3.5 | 7.0 | 0.00 | 0.18 | 0.11 | 83 | 1006.4 |
| 20260506071558 | 60 | 198 | 2.6 | 6.1 | 0.00 | 0.18 | 0.11 | 85 | 1006.4 |
| 20260506071052 | 59 | 184 | 2.6 | 7.0 | 0.00 | 0.18 | 0.11 | 86 | 1006.4 |
| 20260506070552 | 59 | 245 | 3.5 | 6.1 | 0.00 | 0.18 | 0.11 | 87 | 1006.5 |
| 20260506062043 | 57 | 187 | 2.6 | 6.1 | 0.00 | 0.18 | 0.11 | 94 | 1006.4 |
| 20260506061542 | 57 | 189 | 2.6 | 6.1 | 0.00 | 0.18 | 0.11 | 94 | 1006.4 |
| 20260506061041 | 56 | 249 | 1.7 | 7.0 | 0.00 | 0.18 | 0.11 | 95 | 1006.3 |
| 20260506060540 | 56 | 170 | 3.5 | 7.8 | 0.00 | 0.18 | 0.11 | 95 | 1006.4 |
| 20260506051031 | 54 | 249 | 0.9 | 7.0 | 0.00 | 0.18 | 0.11 | 96 | 1006.2 |
| 20260506050529 | 54 | 216 | 1.7 | 7.0 | 0.00 | 0.18 | 0.11 | 96 | 1006.4 |
| 20260506045027 | 54 | 202 | 1.7 | 5.2 | 0.00 | 0.18 | 0.11 | 95 | 1006.4 |
| 20260506044535 | 54 | 207 | 1.7 | 5.2 | 0.00 | 0.18 | 0.11 | 95 | 1006.4 |
| 20260506044028 | 54 | 196 | 1.7 | 5.2 | 0.00 | 0.18 | 0.11 | 95 | 1006.3 |
| 20260506043533 | 54 | 208 | 1.7 | 5.2 | 0.00 | 0.18 | 0.11 | 95 | 1006.3 |
| 20260506043025 | 54 | 205 | 1.7 | 5.2 | 0.00 | 0.18 | 0.11 | 95 | 1006.3 |
| 20260506042525 | 54 | 209 | 1.7 | 5.2 | 0.00 | 0.18 | 0.11 | 95 | 1006.4 |
| 20260506042024 | 54 | 177 | 1.7 | 4.3 | 0.00 | 0.18 | 0.11 | 95 | 1006.4 |
| 20260506041524 | 54 | 201 | 2.6 | 7.8 | 0.00 | 0.18 | 0.11 | 95 | 1006.3 |
| 20260506041023 | 54 | 190 | 1.7 | 5.2 | 0.00 | 0.18 | 0.11 | 95 | 1006.4 |
| 20260506040522 | 54 | 197 | 1.7 | 5.2 | 0.00 | 0.18 | 0.11 | 95 | 1006.3 |
| 20260506040027 | 54 | 310 | 2.6 | 5.2 | 0.00 | 0.18 | 0.11 | 95 | 1006.4 |
| 20260506035522 | 54 | 205 | 2.6 | 5.2 | 0.00 | 0.18 | 0.11 | 95 | 1006.4 |
| 20260506035021 | 54 | 194 | 2.6 | 5.2 | 0.01 | 0.18 | 0.11 | 95 | 1006.4 |
| 20260506034521 | 54 | 221 | 2.6 | 5.2 | 0.01 | 0.18 | 0.11 | 95 | 1006.5 |
| 20260506034020 | 54 | 208 | 1.7 | 5.2 | 0.01 | 0.18 | 0.11 | 95 | 1006.5 |
| 20260506033521 | 54 | 204 | 2.6 | 5.2 | 0.01 | 0.18 | 0.11 | 95 | 1006.5 |
| 20260506033019 | 54 | 207 | 1.7 | 5.2 | 0.01 | 0.18 | 0.11 | 95 | 1006.4 |
| 20260506032518 | 54 | 227 | 1.7 | 6.1 | 0.01 | 0.18 | 0.11 | 95 | 1006.4 |
| 20260506032019 | 54 | 192 | 2.6 | 6.1 | 0.01 | 0.18 | 0.11 | 95 | 1006.5 |
| 20260506031518 | 54 | 204 | 1.7 | 4.3 | 0.01 | 0.18 | 0.11 | 95 | 1006.5 |
| 20260506031017 | 54 | 168 | 1.7 | 5.2 | 0.01 | 0.18 | 0.11 | 95 | 1006.6 |
| 20260506030517 | 55 | 210 | 2.6 | 4.3 | 0.01 | 0.18 | 0.11 | 95 | 1006.5 |
| 20260506030016 | 55 | 206 | 1.7 | 3.5 | 0.01 | 0.18 | 0.11 | 95 | 1006.6 |
| 20260506025515 | 55 | 211 | 1.7 | 3.5 | 0.01 | 0.18 | 0.11 | 95 | 1006.6 |
| 20260506025017 | 55 | 211 | 1.7 | 3.5 | 0.00 | 0.17 | 0.10 | 95 | 1006.6 |
| 20260506024515 | 55 | 235 | 1.7 | 3.5 | 0.00 | 0.17 | 0.10 | 95 | 1006.6 |
| 20260506024015 | 55 | 196 | 0.9 | 4.3 | 0.00 | 0.17 | 0.10 | 95 | 1006.6 |
| 20260506023515 | 55 | 232 | 1.7 | 4.3 | 0.00 | 0.17 | 0.10 | 95 | 1006.6 |
| 20260506023020 | 55 | 215 | 0.9 | 4.3 | 0.00 | 0.17 | 0.10 | 95 | 1006.6 |
| 20260506022513 | 55 | 190 | 0.9 | 3.5 | 0.00 | 0.17 | 0.10 | 95 | 1006.6 |
| 20260506022017 | 55 | 189 | 0.9 | 3.5 | 0.00 | 0.17 | 0.10 | 95 | 1006.6 |
| 20260506021516 | 55 | 242 | 1.7 | 3.5 | 0.00 | 0.17 | 0.10 | 95 | 1006.7 |
| 20260506021016 | 55 | 180 | 0.0 | 3.5 | 0.00 | 0.17 | 0.10 | 95 | 1006.7 |
| 20260506020511 | 55 | 207 | 0.9 | 3.5 | 0.00 | 0.17 | 0.10 | 95 | 1006.9 |
| 20260506020013 | 55 | 209 | 1.7 | 4.3 | 0.00 | 0.17 | 0.10 | 95 | 1006.9 |
| 20260506015511 | 55 | 195 | 1.7 | 3.5 | 0.00 | 0.17 | 0.10 | 95 | 1006.9 |
| 20260506015011 | 55 | 167 | 0.9 | 6.1 | 0.00 | 0.17 | 0.10 | 95 | 1006.8 |
| 20260506014513 | 55 | 195 | 1.7 | 4.3 | 0.00 | 0.17 | 0.10 | 95 | 1006.8 |
| 20260506014010 | 55 | 195 | 1.7 | 5.2 | 0.00 | 0.17 | 0.10 | 95 | 1006.9 |